| time (UTC) | temp F | wind direction | speed MPH | gust MPH | rain 1hr in | rain 24hr in | rain mn in | humidity % | barometer mb |
| 20260505041604 | 66 | 321 | 0.0 | 0.0 | 0.00 | 0.00 | 0.00 | 62 | 1007.6 |
| 20260505041104 | 66 | 321 | 0.0 | 0.0 | 0.00 | 0.00 | 0.00 | 60 | 1007.5 |
| 20260505040604 | 67 | 321 | 0.0 | 0.0 | 0.00 | 0.00 | 0.00 | 60 | 1007.4 |
| 20260505040105 | 67 | 321 | 0.0 | 0.0 | 0.00 | 0.00 | 0.00 | 61 | 1007.3 |
| 20260505035604 | 67 | 321 | 0.0 | 0.0 | 0.00 | 0.00 | 0.00 | 61 | 1007.3 |
| 20260505035104 | 68 | 321 | 0.0 | 0.0 | 0.00 | 0.00 | 0.00 | 59 | 1007.4 |
| 20260505034605 | 68 | 321 | 0.0 | 0.0 | 0.00 | 0.00 | 0.00 | 58 | 1007.3 |
| 20260505033605 | 69 | 321 | 0.0 | 0.0 | 0.00 | 0.00 | 0.00 | 56 | 1007.2 |
| 20260505033104 | 69 | 322 | 0.0 | 0.0 | 0.00 | 0.00 | 0.00 | 56 | 1007.2 |
| 20260505032604 | 69 | 321 | 0.0 | 0.0 | 0.00 | 0.00 | 0.00 | 55 | 1007.2 |
| 20260505032104 | 69 | 321 | 0.0 | 0.0 | 0.00 | 0.00 | 0.00 | 55 | 1007.2 |
| 20260505031604 | 69 | 321 | 0.0 | 0.0 | 0.00 | 0.00 | 0.00 | 56 | 1007.2 |
| 20260505031104 | 69 | 321 | 0.0 | 0.0 | 0.00 | 0.00 | 0.00 | 56 | 1007.3 |
| 20260505030104 | 70 | 321 | 0.0 | 0.0 | 0.00 | 0.00 | 0.00 | 55 | 1007.2 |
| 20260505025604 | 70 | 321 | 0.0 | 0.0 | 0.00 | 0.00 | 0.00 | 54 | 1007.1 |
| 20260505024604 | 71 | 321 | 0.0 | 0.0 | 0.00 | 0.00 | 0.00 | 54 | 1006.9 |
| 20260505024104 | 71 | 321 | 0.0 | 0.0 | 0.00 | 0.00 | 0.00 | 53 | 1006.9 |
| 20260505023605 | 71 | 322 | 0.0 | 0.0 | 0.00 | 0.00 | 0.00 | 54 | 1006.9 |
| 20260505023104 | 72 | 321 | 0.0 | 0.0 | 0.00 | 0.00 | 0.00 | 54 | 1006.8 |
| 20260505022605 | 72 | 321 | 0.0 | 0.0 | 0.00 | 0.00 | 0.00 | 53 | 1006.8 |
| 20260505021604 | 72 | 321 | 0.0 | 0.0 | 0.00 | 0.00 | 0.00 | 52 | 1006.9 |
| 20260505021104 | 73 | 321 | 0.0 | 0.0 | 0.00 | 0.00 | 0.00 | 53 | 1006.8 |
| 20260505020105 | 73 | 321 | 0.0 | 0.0 | 0.00 | 0.00 | 0.00 | 50 | 1006.9 |
| 20260505015604 | 73 | 321 | 0.0 | 0.0 | 0.00 | 0.00 | 0.00 | 50 | 1006.9 |
| 20260505015104 | 74 | 321 | 0.0 | 0.0 | 0.00 | 0.00 | 0.00 | 49 | 1007.0 |
| 20260505014605 | 74 | 321 | 0.0 | 0.0 | 0.00 | 0.00 | 0.00 | 50 | 1007.0 |
| 20260505014104 | 74 | 322 | 0.0 | 0.0 | 0.00 | 0.00 | 0.00 | 48 | 1007.0 |
| 20260505013604 | 74 | 321 | 0.0 | 0.0 | 0.00 | 0.00 | 0.00 | 49 | 1006.9 |
| 20260505012604 | 75 | 321 | 0.0 | 0.0 | 0.00 | 0.00 | 0.00 | 48 | 1007.0 |
| 20260505011604 | 75 | 321 | 0.0 | 0.0 | 0.00 | 0.00 | 0.00 | 46 | 1007.0 |
| 20260505011104 | 76 | 321 | 0.0 | 0.0 | 0.00 | 0.00 | 0.00 | 45 | 1007.2 |
| 20260505010605 | 76 | 321 | 0.0 | 0.0 | 0.00 | 0.00 | 0.00 | 44 | 1007.3 |
| 20260505010104 | 76 | 321 | 0.0 | 0.0 | 0.00 | 0.00 | 0.00 | 43 | 1007.3 |
| 20260505005604 | 76 | 321 | 0.0 | 0.0 | 0.00 | 0.00 | 0.00 | 43 | 1007.3 |
| 20260505005104 | 77 | 321 | 0.0 | 0.0 | 0.00 | 0.00 | 0.00 | 42 | 1007.4 |
| 20260505003604 | 78 | 321 | 0.0 | 0.0 | 0.00 | 0.00 | 0.00 | 42 | 1007.5 |
| 20260505003104 | 78 | 321 | 0.0 | 0.0 | 0.00 | 0.00 | 0.00 | 42 | 1007.6 |
| 20260505002604 | 78 | 321 | 0.0 | 0.0 | 0.00 | 0.00 | 0.00 | 40 | 1007.5 |
| 20260505002104 | 79 | 322 | 0.0 | 2.0 | 0.00 | 0.00 | 0.00 | 36 | 1007.6 |
| 20260505001604 | 79 | 71 | 0.0 | 0.0 | 0.00 | 0.00 | 0.00 | 38 | 1007.6 |
| 20260505001105 | 79 | 71 | 0.0 | 0.0 | 0.00 | 0.00 | 0.00 | 39 | 1007.6 |
| 20260505000105 | 80 | 71 | 0.0 | 0.0 | 0.00 | 0.00 | 0.00 | 36 | 1007.6 |
| 20260504235604 | 80 | 71 | 0.0 | 0.0 | 0.00 | 0.00 | 0.00 | 35 | 1007.6 |
| 20260504235105 | 79 | 71 | 0.0 | 0.0 | 0.00 | 0.00 | 0.00 | 33 | 1007.7 |
| 20260504234604 | 79 | 71 | 0.0 | 0.0 | 0.00 | 0.00 | 0.00 | 35 | 1007.8 |
| 20260504234104 | 80 | 71 | 0.0 | 0.0 | 0.00 | 0.00 | 0.00 | 37 | 1007.7 |
| 20260504232604 | 80 | 326 | 0.0 | 0.0 | 0.00 | 0.00 | 0.00 | 33 | 1007.9 |
| 20260504230604 | 81 | 140 | 0.0 | 0.0 | 0.00 | 0.00 | 0.00 | 33 | 1007.9 |
| 20260504230104 | 82 | 59 | 0.0 | 0.0 | 0.00 | 0.00 | 0.00 | 35 | 1008.0 |
| 20260504225604 | 82 | 333 | 0.0 | 0.0 | 0.00 | 0.00 | 0.00 | 32 | 1008.0 |
| 20260504224604 | 81 | 85 | 0.0 | 0.0 | 0.00 | 0.00 | 0.00 | 32 | 1008.0 |
| 20260504224103 | 80 | 355 | 0.0 | 3.0 | 0.00 | 0.00 | 0.00 | 36 | 1008.1 |
| 20260504223604 | 80 | 61 | 0.0 | 3.0 | 0.00 | 0.00 | 0.00 | 34 | 1008.1 |
| 20260504223105 | 80 | 61 | 0.0 | 0.0 | 0.00 | 0.00 | 0.00 | 40 | 1008.1 |
| 20260504222604 | 80 | 61 | 0.0 | 0.0 | 0.00 | 0.00 | 0.00 | 33 | 1008.1 |
| 20260504222104 | 80 | 61 | 0.0 | 2.0 | 0.00 | 0.00 | 0.00 | 33 | 1008.1 |
| 20260504221604 | 80 | 14 | 0.0 | 1.0 | 0.00 | 0.00 | 0.00 | 35 | 1008.1 |
| 20260504220604 | 80 | 16 | 0.0 | 0.0 | 0.00 | 0.00 | 0.00 | 37 | 1008.3 |
| 20260504220104 | 80 | 16 | 0.0 | 0.0 | 0.00 | 0.00 | 0.00 | 33 | 1008.3 |
| 20260504215605 | 80 | 298 | 0.0 | 1.0 | 0.00 | 0.00 | 0.00 | 32 | 1008.4 |
| 20260504215104 | 79 | 298 | 0.0 | 8.0 | 0.00 | 0.00 | 0.00 | 37 | 1008.5 |
| 20260504214604 | 79 | 292 | 0.0 | 6.0 | 0.00 | 0.00 | 0.00 | 33 | 1008.5 |
| 20260504214104 | 79 | 325 | 1.0 | 2.0 | 0.00 | 0.00 | 0.00 | 35 | 1008.6 |
| 20260504213604 | 79 | 325 | 0.0 | 0.0 | 0.00 | 0.00 | 0.00 | 35 | 1008.6 |
| 20260504213104 | 79 | 261 | 0.0 | 2.0 | 0.00 | 0.00 | 0.00 | 37 | 1008.6 |
| 20260504212604 | 79 | 297 | 0.0 | 1.0 | 0.00 | 0.00 | 0.00 | 38 | 1008.8 |
| 20260504212105 | 79 | 297 | 0.0 | 0.0 | 0.00 | 0.00 | 0.00 | 39 | 1008.8 |
| 20260504211604 | 78 | 296 | 0.0 | 8.0 | 0.00 | 0.00 | 0.00 | 36 | 1008.7 |
| 20260504211104 | 78 | 318 | 0.0 | 2.0 | 0.00 | 0.00 | 0.00 | 35 | 1008.8 |
| 20260504210604 | 78 | 86 | 0.0 | 0.0 | 0.00 | 0.00 | 0.00 | 36 | 1008.8 |
| 20260504210104 | 78 | 86 | 1.0 | 6.0 | 0.00 | 0.00 | 0.00 | 36 | 1008.8 |
| 20260504205605 | 78 | 281 | 1.0 | 6.0 | 0.00 | 0.00 | 0.00 | 38 | 1008.9 |
| 20260504205104 | 77 | 84 | 0.0 | 0.0 | 0.00 | 0.00 | 0.00 | 36 | 1009.0 |
| 20260504204604 | 77 | 84 | 0.0 | 0.0 | 0.00 | 0.00 | 0.00 | 40 | 1009.1 |
| 20260504204105 | 77 | 84 | 0.0 | 1.0 | 0.00 | 0.00 | 0.00 | 38 | 1009.0 |
| 20260504203604 | 77 | 84 | 0.0 | 3.0 | 0.00 | 0.00 | 0.00 | 37 | 1009.0 |
| 20260504203104 | 78 | 49 | 1.0 | 5.0 | 0.00 | 0.00 | 0.00 | 35 | 1009.0 |
| 20260504202604 | 77 | 355 | 0.0 | 1.0 | 0.00 | 0.00 | 0.00 | 37 | 1009.2 |
| 20260504202104 | 77 | 315 | 0.0 | 5.0 | 0.00 | 0.00 | 0.00 | 39 | 1009.2 |
| 20260504201605 | 77 | 82 | 0.0 | 3.0 | 0.00 | 0.00 | 0.00 | 37 | 1009.2 |
| 20260504201104 | 77 | 72 | 0.0 | 3.0 | 0.00 | 0.00 | 0.00 | 35 | 1009.3 |
| 20260504200604 | 77 | 59 | 0.0 | 0.0 | 0.00 | 0.00 | 0.00 | 41 | 1009.3 |
| 20260504200104 | 77 | 59 | 0.0 | 0.0 | 0.00 | 0.00 | 0.00 | 41 | 1009.3 |
| 20260504195605 | 77 | 60 | 1.0 | 3.0 | 0.00 | 0.00 | 0.00 | 38 | 1009.4 |
| 20260504194104 | 76 | 346 | 1.0 | 5.0 | 0.00 | 0.00 | 0.00 | 44 | 1009.5 |
| 20260504193104 | 76 | 71 | 0.0 | 3.0 | 0.00 | 0.00 | 0.00 | 45 | 1009.4 |
| 20260504192104 | 76 | 284 | 0.0 | 0.0 | 0.00 | 0.00 | 0.00 | 48 | 1009.2 |
| 20260504191604 | 76 | 284 | 0.0 | 0.0 | 0.00 | 0.00 | 0.00 | 54 | 1009.3 |
| 20260504191104 | 76 | 283 | 0.0 | 1.0 | 0.00 | 0.00 | 0.00 | 47 | 1009.3 |
| 20260504190604 | 75 | 65 | 0.0 | 0.0 | 0.00 | 0.00 | 0.00 | 43 | 1009.4 |
| 20260504190105 | 75 | 66 | 1.0 | 3.0 | 0.00 | 0.00 | 0.00 | 44 | 1009.4 |
| 20260504185105 | 75 | 109 | 0.0 | 2.0 | 0.00 | 0.00 | 0.00 | 51 | 1009.5 |
| 20260504184604 | 74 | 111 | 0.0 | 2.0 | 0.00 | 0.00 | 0.00 | 47 | 1009.5 |
| 20260504184105 | 74 | 86 | 0.0 | 3.0 | 0.00 | 0.00 | 0.00 | 48 | 1009.6 |
| 20260504183604 | 74 | 325 | 0.0 | 0.0 | 0.00 | 0.00 | 0.00 | 47 | 1009.6 |
| 20260504183104 | 73 | 321 | 1.0 | 5.0 | 0.00 | 0.00 | 0.00 | 48 | 1009.6 |
| 20260504182604 | 73 | 303 | 1.0 | 8.0 | 0.00 | 0.00 | 0.00 | 50 | 1009.6 |
| 20260504181605 | 73 | 77 | 0.0 | 0.0 | 0.00 | 0.00 | 0.00 | 50 | 1009.5 |
| 20260504181104 | 73 | 81 | 0.0 | 0.0 | 0.00 | 0.00 | 0.00 | 51 | 1009.6 |
| 20260504180604 | 73 | 82 | 0.0 | 3.0 | 0.00 | 0.00 | 0.00 | 53 | 1009.6 |
| 20260504180105 | 73 | 88 | 0.0 | 0.0 | 0.00 | 0.00 | 0.00 | 53 | 1009.5 |
| 20260504175604 | 73 | 90 | 2.0 | 8.0 | 0.00 | 0.00 | 0.00 | 50 | 1009.5 |
| 20260504175104 | 75 | 63 | 0.0 | 0.0 | 0.00 | 0.00 | 0.00 | 50 | 1009.5 |
| 20260504174604 | 74 | 72 | 0.0 | 0.0 | 0.00 | 0.00 | 0.00 | 48 | 1009.5 |
| 20260504174105 | 75 | 72 | 0.0 | 0.0 | 0.00 | 0.00 | 0.00 | 48 | 1009.5 |
| 20260504173104 | 75 | 322 | 0.0 | 0.0 | 0.00 | 0.00 | 0.00 | 47 | 1009.4 |
| 20260504172604 | 76 | 317 | 0.0 | 0.0 | 0.00 | 0.00 | 0.00 | 46 | 1009.4 |
| 20260504172105 | 76 | 317 | 0.0 | 0.0 | 0.00 | 0.00 | 0.00 | 46 | 1009.4 |
| 20260504171604 | 75 | 60 | 0.0 | 0.0 | 0.00 | 0.00 | 0.00 | 44 | 1009.3 |
| 20260504170104 | 74 | 62 | 0.0 | 0.0 | 0.00 | 0.00 | 0.00 | 48 | 1009.4 |
| 20260504160104 | 73 | 306 | 0.0 | 6.0 | 0.00 | 0.00 | 0.00 | 44 | 1009.4 |
| 20260504151104 | 68 | 346 | 0.0 | 5.0 | 0.00 | 0.00 | 0.00 | 50 | 1009.5 |
| 20260504150103 | 66 | 317 | 2.0 | 9.0 | 0.00 | 0.00 | 0.00 | 52 | 1009.5 |
| 20260504140604 | 63 | 344 | 0.0 | 2.0 | 0.00 | 0.00 | 0.00 | 63 | 1009.2 |
| 20260504140104 | 63 | 313 | 1.0 | 5.0 | 0.00 | 0.00 | 0.00 | 62 | 1009.2 |
| 20260504130603 | 62 | 5 | 0.0 | 0.0 | 0.00 | 0.00 | 0.00 | 61 | 1008.8 |
| 20260504130104 | 62 | 5 | 0.0 | 0.0 | 0.00 | 0.00 | 0.00 | 61 | 1008.7 |
| 20260504120104 | 64 | 5 | 0.0 | 2.0 | 0.00 | 0.00 | 0.00 | 55 | 1008.9 |
| 20260504110603 | 67 | 282 | 0.0 | 2.0 | 0.00 | 0.00 | 0.00 | 50 | 1008.7 |
| 20260504110103 | 67 | 30 | 0.0 | 0.0 | 0.00 | 0.00 | 0.00 | 52 | 1008.8 |
| 20260504100604 | 67 | 312 | 3.0 | 14.0 | 0.00 | 0.00 | 0.00 | 49 | 1008.8 |
| 20260504100104 | 67 | 327 | 1.0 | 8.0 | 0.00 | 0.00 | 0.00 | 52 | 1008.7 |
| 20260504090104 | 69 | 327 | 1.0 | 8.0 | 0.00 | 0.00 | 0.00 | 45 | 1008.4 |
| 20260504080604 | 68 | 325 | 2.0 | 8.0 | 0.00 | 0.00 | 0.00 | 49 | 1008.4 |
| 20260504080104 | 68 | 355 | 0.0 | 0.0 | 0.00 | 0.00 | 0.00 | 50 | 1008.4 |
| 20260504070104 | 68 | 325 | 0.0 | 2.0 | 0.00 | 0.00 | 0.00 | 46 | 1008.8 |
| 20260504060104 | 70 | 240 | 0.0 | 0.0 | 0.00 | 0.00 | 0.00 | 40 | 1008.6 |
| 20260504050603 | 69 | 240 | 0.0 | 0.0 | 0.00 | 0.00 | 0.00 | 42 | 1008.8 |
| 20260504050104 | 69 | 240 | 0.0 | 0.0 | 0.00 | 0.00 | 0.00 | 41 | 1008.8 |
| 20260504045603 | 69 | 240 | 0.0 | 0.0 | 0.00 | 0.00 | 0.00 | 42 | 1008.9 |
| 20260504045103 | 69 | 240 | 0.0 | 0.0 | 0.00 | 0.00 | 0.00 | 41 | 1008.9 |
| 20260504044603 | 69 | 240 | 0.0 | 0.0 | 0.00 | 0.00 | 0.00 | 44 | 1009.0 |